Date,Installs,Update checks
2016-08-27,3,1
2016-08-28,11,5
2016-08-29,8,14
2016-08-30,8,15
2016-08-31,7,25
2016-09-01,5,28
2016-09-02,6,29
2016-09-03,9,34
2016-09-04,10,32
2016-09-05,9,42
2016-09-06,7,39
2016-09-07,7,48
2016-09-08,3,37
2016-09-09,6,48
2016-09-10,4,36
2016-09-11,8,48
2016-09-12,6,57
2016-09-13,10,52
2016-09-14,4,56
2016-09-15,5,61
2016-09-16,5,53
2016-09-17,4,49
2016-09-18,5,63
2016-09-19,7,60
2016-09-20,5,69
2016-09-21,7,69
2016-09-22,7,66
2016-09-23,6,80
2016-09-24,9,67
2016-09-25,3,75
2016-09-26,5,77
2016-09-27,5,72
2016-09-28,3,77
2016-09-29,8,79
2016-09-30,7,74
2016-10-01,8,80
2016-10-02,6,69
2016-10-03,10,88
2016-10-04,10,86
2016-10-05,8,87
2016-10-06,4,101
2016-10-07,5,93
2016-10-08,17,105
2016-10-09,10,86
2016-10-10,5,117
2016-10-11,11,102
2016-10-12,6,115
2016-10-13,3,94
2016-10-14,8,119
2016-10-15,4,88
2016-10-16,1,110
2016-10-17,4,106
2016-10-18,2,118
2016-10-19,2,106
2016-10-20,1,115
2016-10-21,3,105
2016-10-22,9,101
2016-10-23,2,109
2016-10-24,2,113
2016-10-25,1,108
2016-10-26,4,120
2016-10-27,5,112
2016-10-28,4,129
2016-10-29,6,103
2016-10-30,7,126
2016-10-31,5,123
2016-11-01,10,121
2016-11-02,6,130
2016-11-03,2,129
2016-11-04,4,128
2016-11-05,5,115
2016-11-06,5,128
2016-11-07,1,141
2016-11-08,11,126
2016-11-09,7,156
2016-11-10,6,142
2016-11-11,3,135
2016-11-12,10,144
2016-11-13,8,147
2016-11-14,7,166
2016-11-15,9,153
2016-11-16,10,165
2016-11-17,11,166
2016-11-18,1,162
2016-11-19,6,154
2016-11-20,9,143
2016-11-21,6,171
2016-11-22,9,167
2016-11-23,6,169
2016-11-24,3,159
2016-11-25,11,165
2016-11-26,11,165
2016-11-27,8,156
2016-11-28,3,187
2016-11-29,5,175
2016-11-30,10,197
2016-12-01,7,181
2016-12-02,3,207
2016-12-03,9,168
2016-12-04,12,186
2016-12-05,10,197
2016-12-06,7,206
2016-12-07,9,216
2016-12-08,14,206
2016-12-09,2,225
2016-12-10,1,183
2016-12-11,10,176
2016-12-12,14,238
2016-12-13,8,202
2016-12-14,5,235
2016-12-15,3,196
2016-12-16,5,246
2016-12-17,10,192
2016-12-18,8,219
2016-12-19,3,214
2016-12-20,3,231
2016-12-21,3,207
2016-12-22,9,219
2016-12-23,10,215
2016-12-24,4,204
2016-12-25,10,208
2016-12-26,5,210
2016-12-27,8,215
2016-12-28,4,243
2016-12-29,8,221
2016-12-30,8,221
2016-12-31,5,204
2017-01-01,4,228
2017-01-02,3,215
2017-01-03,9,233
2017-01-04,4,228
2017-01-05,6,240
2017-01-06,4,215
2017-01-07,9,228
2017-01-08,6,236
2017-01-09,3,224
2017-01-10,6,239
2017-01-11,2,242
2017-01-12,4,221
2017-01-13,6,234
2017-01-14,2,228
2017-01-15,5,218
2017-01-16,3,241
2017-01-17,10,213
2017-01-18,6,252
2017-01-19,6,220
2017-01-20,3,254
2017-01-21,5,219
2017-01-22,8,238
2017-01-23,6,232
2017-01-24,4,237
2017-01-25,6,240
2017-01-26,3,221
2017-01-27,3,224
2017-01-28,11,208
2017-01-29,3,229
2017-01-30,4,209
2017-01-31,4,232
2017-02-01,3,238
2017-02-02,6,245
2017-02-03,4,256
2017-02-04,7,247
2017-02-05,3,237
2017-02-06,4,265
2017-02-07,3,262
2017-02-08,4,266
2017-02-09,4,244
2017-02-10,7,262
2017-02-11,14,240
2017-02-12,10,256
2017-02-13,11,282
2017-02-14,5,265
2017-02-15,7,284
2017-02-16,8,280
2017-02-17,11,265
2017-02-18,9,263
2017-02-19,12,251
2017-02-20,12,305
2017-02-21,22,275
2017-02-22,7,301
2017-02-23,17,281
2017-02-24,20,325
2017-02-25,13,269
2017-02-26,20,299
2017-02-27,16,310
2017-02-28,15,316
2017-03-01,6,332
2017-03-02,24,332
2017-03-03,17,340
2017-03-04,19,318
2017-03-05,20,338
2017-03-06,24,384
2017-03-07,9,374
2017-03-08,13,360
2017-03-09,16,389
2017-03-10,15,360
2017-03-11,19,370
2017-03-12,21,318
2017-03-13,21,428
2017-03-14,21,373
2017-03-15,11,416
2017-03-16,15,430
2017-03-17,18,405
2017-03-18,17,397
2017-03-19,17,367
2017-03-20,13,481
2017-03-21,13,397
2017-03-22,9,427
2017-03-23,10,414
2017-03-24,16,463
2017-03-25,15,402
2017-03-26,11,409
2017-03-27,9,448
2017-03-28,13,439
2017-03-29,15,450
2017-03-30,12,456
2017-03-31,8,466
2017-04-01,15,448
2017-04-02,21,422
2017-04-03,19,445
2017-04-04,20,449
2017-04-05,20,509
2017-04-06,22,474
2017-04-07,14,514
2017-04-08,15,437
2017-04-09,19,444
2017-04-10,21,507
2017-04-11,28,478
2017-04-12,35,500
2017-04-13,24,531
2017-04-14,22,506
2017-04-15,31,480
2017-04-16,26,460
2017-04-17,19,567
2017-04-18,29,509
2017-04-19,23,579
2017-04-20,15,562
2017-04-21,22,532
2017-04-22,13,22
2017-04-23,25,711
2017-04-24,20,464
2017-04-25,14,684
2017-04-26,27,499
2017-04-27,23,653
2017-04-28,20,533
2017-04-29,25,605
2017-04-30,16,456
2017-05-01,19,619
2017-05-02,20,598
2017-05-03,33,631
2017-05-04,18,596
2017-05-05,21,641
2017-05-06,34,569
2017-05-07,29,652
2017-05-08,25,631
2017-05-09,26,678
2017-05-10,33,655
2017-05-11,36,662
2017-05-12,34,687
2017-05-13,25,639
2017-05-14,24,660
2017-05-15,18,740
2017-05-16,17,684
2017-05-17,18,756
2017-05-18,22,700
2017-05-19,29,741
2017-05-20,27,692
2017-05-21,19,669
2017-05-22,20,755
2017-05-23,20,776
2017-05-24,19,745
2017-05-25,16,769
2017-05-26,24,743
2017-05-27,25,724
2017-05-28,15,661
2017-05-29,18,768
2017-05-30,26,731
2017-05-31,14,796
2017-06-01,20,750
2017-06-02,25,812
2017-06-03,27,746
2017-06-04,23,745
2017-06-05,26,799
2017-06-06,22,821
2017-06-07,22,791
2017-06-08,32,818
2017-06-09,38,840
2017-06-10,32,838
2017-06-11,26,753
2017-06-12,24,917
2017-06-13,27,791
2017-06-14,23,932
2017-06-15,14,852
2017-06-16,24,922
2017-06-17,26,783
2017-06-18,35,841
2017-06-19,15,943
2017-06-20,21,858
2017-06-21,42,906
2017-06-22,26,898
2017-06-23,23,908
2017-06-24,31,871
2017-06-25,32,813
2017-06-26,31,962
2017-06-27,28,863
2017-06-28,31,988
2017-06-29,23,930
2017-06-30,16,960
2017-07-01,40,862
2017-07-02,32,907
2017-07-03,27,1015
2017-07-04,17,920
2017-07-05,35,1003
2017-07-06,17,977
2017-07-07,31,957
2017-07-08,20,922
2017-07-09,21,879
2017-07-10,30,1058
2017-07-11,27,959
2017-07-12,29,1088
2017-07-13,19,983
2017-07-14,22,1044
2017-07-15,28,918
2017-07-16,24,944
2017-07-17,14,1139
2017-07-18,30,1008
2017-07-19,27,1068
2017-07-20,25,1041
2017-07-21,41,1406
2017-07-22,25,961
2017-07-23,29,1103
2017-07-24,26,1179
2017-07-25,25,1198
2017-07-26,27,985
2017-07-27,26,1200
2017-07-28,29,1184
2017-07-29,13,1102
2017-07-30,24,1071
2017-07-31,30,1263
2017-08-01,25,1183
2017-08-02,20,1188
2017-08-03,40,1264
2017-08-04,28,1210
2017-08-05,17,1140
2017-08-06,21,1130
2017-08-07,22,1262
2017-08-08,79,1280
2017-08-09,55,1210
2017-08-10,40,1367
2017-08-11,34,1246
2017-08-12,38,1211
2017-08-13,35,1177
2017-08-14,37,1380
2017-08-15,28,1301
2017-08-16,32,1263
2017-08-17,22,1347
2017-08-18,33,1342
2017-08-19,38,1221
2017-08-20,37,1231
2017-08-21,28,1395
2017-08-22,325,1415
2017-08-23,187,1295
2017-08-24,106,1776
2017-08-25,67,1733
2017-08-26,82,1585
2017-08-27,69,1656
2017-08-28,70,1805
2017-08-29,66,1866
2017-08-30,51,1761
2017-08-31,38,1858
2017-09-01,40,1763
2017-09-02,33,1614
2017-09-03,49,1671
2017-09-04,44,1929
2017-09-05,51,1992
2017-09-06,30,1305
2017-09-07,51,1998
2017-09-08,43,1932
2017-09-09,40,1790
2017-09-10,45,1770
2017-09-11,44,2049
2017-09-12,48,2077
2017-09-13,30,1575
2017-09-14,39,2108
2017-09-15,40,1953
2017-09-16,33,1859
2017-09-17,49,1863
2017-09-18,44,2119
2017-09-19,42,2080
2017-09-20,36,2085
2017-09-21,33,2029
2017-09-22,195,2122
2017-09-23,90,1963
2017-09-24,61,2007
2017-09-25,63,2327
2017-09-26,49,2292
2017-09-27,56,2216
2017-09-28,48,2254
2017-09-29,46,2188
2017-09-30,60,2125
2017-10-01,53,1855
2017-10-02,47,1792
2017-10-03,44,1929
2017-10-04,48,1873
2017-10-05,37,1910
2017-10-06,48,1917
2017-10-07,55,2061
2017-10-08,48,2086
2017-10-09,45,2399
2017-10-10,50,2369
2017-10-11,31,2395
2017-10-12,37,2353
2017-10-13,47,2371
2017-10-14,42,2189
2017-10-15,38,2129
2017-10-16,38,2571
2017-10-17,50,2373
2017-10-18,46,2439
2017-10-19,44,2410
2017-10-20,41,2384
2017-10-21,41,2168
2017-10-22,37,2113
2017-10-23,38,2595
2017-10-24,32,2433
2017-10-25,38,2411
2017-10-26,47,2417
2017-10-27,37,2425
2017-10-28,42,2264
2017-10-29,44,2236
2017-10-30,28,2583
2017-10-31,35,2486
2017-11-01,38,2479
2017-11-02,26,2510
2017-11-03,31,2487
2017-11-04,41,2235
2017-11-05,35,2221
2017-11-06,23,1436
2017-11-07,42,2717
2017-11-08,36,2440
2017-11-09,40,2492
2017-11-10,35,2525
2017-11-11,45,2277
2017-11-12,39,2218
2017-11-13,45,2721
2017-11-14,59,2571
2017-11-15,55,2590
2017-11-16,50,2529
2017-11-17,54,2529
2017-11-18,57,2229
2017-11-19,74,2318
2017-11-20,58,2631
2017-11-21,59,2570
2017-11-22,52,2501
2017-11-23,52,2500
2017-11-24,54,2445
2017-11-25,52,2306
2017-11-26,43,2264
2017-11-27,55,2636
2017-11-28,48,2590
2017-11-29,62,2551
2017-11-30,32,2502
2017-12-01,39,2558
2017-12-02,43,2325
2017-12-03,34,2294
2017-12-04,29,2690
2017-12-05,33,2603
2017-12-06,44,2704
2017-12-07,43,2701
2017-12-08,27,2668
2017-12-09,41,2389
2017-12-10,41,2334
2017-12-11,77,2815
2017-12-12,56,2716
2017-12-13,64,2729
2017-12-14,67,2741
2017-12-15,49,2701
2017-12-16,60,2432
2017-12-17,42,2404
2017-12-18,51,2853
2017-12-19,208,2791
2017-12-20,282,2873
2017-12-21,127,3076
2017-12-22,100,2970
2017-12-23,75,2644
2017-12-24,85,2668
2017-12-25,70,3149
2017-12-26,83,3100
2017-12-27,76,3186
2017-12-28,62,3145
2017-12-29,60,3111
2017-12-30,66,2773
2017-12-31,47,2581
2018-01-01,52,2772
2018-01-02,53,3398
2018-01-03,61,3227
2018-01-04,62,3250
2018-01-05,43,3257
2018-01-06,66,3003
2018-01-07,69,2951
2018-01-08,53,3410
2018-01-09,59,3369
2018-01-10,65,3444
2018-01-11,66,3301
2018-01-12,50,3379
2018-01-13,65,3127
2018-01-14,53,2993
2018-01-15,52,3525
2018-01-16,52,3470
2018-01-17,70,3472
2018-01-18,54,3425
2018-01-19,74,3390
2018-01-20,75,3170
2018-01-21,53,3086
2018-01-22,72,3698
2018-01-23,54,3445
2018-01-24,74,3563
2018-01-25,75,3435
2018-01-26,37,3472
2018-01-27,76,3171
2018-01-28,66,3108
2018-01-29,61,3694
2018-01-30,71,3575
2018-01-31,71,3563
2018-02-01,65,3459
2018-02-02,68,3574
2018-02-03,58,3190
2018-02-04,52,3127
2018-02-05,58,3702
2018-02-06,59,3648
2018-02-07,60,3606
2018-02-08,70,3341
2018-02-09,54,3569
2018-02-10,42,3200
2018-02-11,63,3261
2018-02-12,49,3265
2018-02-13,53,3200
2018-02-14,53,3014
2018-02-15,35,2799
2018-02-16,44,2739
2018-02-17,33,2713
2018-02-18,46,2732
2018-02-19,40,2853
2018-02-20,56,2996
2018-02-21,50,3126
2018-02-22,56,3539
2018-02-23,69,3655
2018-02-24,81,3576
2018-02-25,70,3404
2018-02-26,74,4061
2018-02-27,75,3883
2018-02-28,68,3991
2018-03-01,79,3930
2018-03-02,57,3903
2018-03-03,67,3514
2018-03-04,71,3533
2018-03-05,78,4228
2018-03-06,58,4138
2018-03-07,67,4149
2018-03-08,74,4175
2018-03-09,62,4107
2018-03-10,71,3677
2018-03-11,67,3701
2018-03-12,84,4344
2018-03-13,84,4246
2018-03-14,88,4258
2018-03-15,72,4287
2018-03-16,78,4241
2018-03-17,66,3822
2018-03-18,79,3778
2018-03-19,66,4433
2018-03-20,71,4348
2018-03-21,83,4313
2018-03-22,73,4301
2018-03-23,83,4342
2018-03-24,78,3828
2018-03-25,68,3867
2018-03-26,70,4496
2018-03-27,82,4378
2018-03-28,68,4420
2018-03-29,44,4352
2018-03-30,69,4304
2018-03-31,67,3870
2018-04-01,73,3785
2018-04-02,65,4583
2018-04-03,66,4400
2018-04-04,68,4325
2018-04-05,84,3765
2018-04-06,57,3828
2018-04-07,58,3940
2018-04-08,64,4543
2018-04-09,55,4561
2018-04-10,50,4439
2018-04-11,80,4503
2018-04-12,67,4558
2018-04-13,62,4605
2018-04-14,57,4125
2018-04-15,66,4053
2018-04-16,48,4769
2018-04-17,83,4603
2018-04-18,67,4629
2018-04-19,56,4574
2018-04-20,58,4580
2018-04-21,75,4155
2018-04-22,57,4110
2018-04-23,55,4902
2018-04-24,63,4657
2018-04-25,62,4692
2018-04-26,77,4756
2018-04-27,71,4651
2018-04-28,74,4404
2018-04-29,81,3943
2018-04-30,64,3913
2018-05-01,60,4138
2018-05-02,56,4930
2018-05-03,57,4740
2018-05-04,72,4803
2018-05-05,62,4275
2018-05-06,52,4390
2018-05-07,50,4967
2018-05-08,71,4838
2018-05-09,54,4859
2018-05-10,71,4853
2018-05-11,69,4762
2018-05-12,54,4345
2018-05-13,61,4251
2018-05-14,57,5073
2018-05-15,46,4939
2018-05-16,50,4834
2018-05-17,54,4866
2018-05-18,56,4911
2018-05-19,60,3171
2018-05-20,49,4582
2018-05-21,47,5020
2018-05-22,59,4945
2018-05-23,54,4899
2018-05-24,54,4863
2018-05-25,59,4944
2018-05-26,55,4359
2018-05-27,57,4381
2018-05-28,44,5135
2018-05-29,52,5009
2018-05-30,63,5020
2018-05-31,121,4943
2018-06-01,85,4915
2018-06-02,58,3918
2018-06-03,75,4139
2018-06-04,50,4789
2018-06-05,56,4660
2018-06-06,54,4598
2018-06-07,49,4657
2018-06-08,44,4536
2018-06-09,47,3912
2018-06-10,51,4016
2018-06-11,60,4763
2018-06-12,56,4600
2018-06-13,52,4522
2018-06-14,54,4590
2018-06-15,44,4573
2018-06-16,46,3863
2018-06-17,44,3921
2018-06-18,40,4162
2018-06-19,46,4858
2018-06-20,43,2840
2018-06-21,44,3172
2018-06-22,50,4759
2018-06-23,65,4049
2018-06-24,73,4036
2018-06-25,63,4851
2018-06-26,61,4724
2018-06-27,63,4577
2018-06-28,54,4654
2018-06-29,63,4541
2018-06-30,40,4179
2018-07-01,45,4080
2018-07-02,52,4921
2018-07-03,54,4654
2018-07-04,47,4622
2018-07-05,60,4618
2018-07-06,52,4618
2018-07-07,74,4066
2018-07-08,63,4083
2018-07-09,69,4879
2018-07-10,77,4656
2018-07-11,71,4696
2018-07-12,61,4673
2018-07-13,56,4709
2018-07-14,48,4101
2018-07-15,67,4139
2018-07-16,93,4804
2018-07-17,61,4629
2018-07-18,63,4622
2018-07-19,64,4663
2018-07-20,142,4590
2018-07-21,86,4202
2018-07-22,93,4140
2018-07-23,97,4959
2018-07-24,94,4837
2018-07-25,86,4831
2018-07-26,85,4779
2018-07-27,85,4764
2018-07-28,89,4221
2018-07-29,72,4280
2018-07-30,85,5047
2018-07-31,62,4766
2018-08-01,78,4931
2018-08-02,79,4867
2018-08-03,65,4817
2018-08-04,70,4301
2018-08-05,68,4337
2018-08-06,75,5071
2018-08-07,78,4871
2018-08-08,82,4886
2018-08-09,88,4985
2018-08-10,80,4923
2018-08-11,75,4253
2018-08-12,80,4402
2018-08-13,70,5143
2018-08-14,83,5033
2018-08-15,73,5047
2018-08-16,73,5036
2018-08-17,80,4921
2018-08-18,73,4472
2018-08-19,72,4424
2018-08-20,81,5336
2018-08-21,93,5081
2018-08-22,76,5007
2018-08-23,65,4963
2018-08-24,56,5086
2018-08-25,69,4512
2018-08-26,74,4428
2018-08-27,79,5327
2018-08-28,81,5095
2018-08-29,75,5102
2018-08-30,63,5216
2018-08-31,59,5098
2018-09-01,55,4592
2018-09-02,58,4449
2018-09-03,85,5320
2018-09-04,264,5245
2018-09-05,207,5321
2018-09-06,196,5420
2018-09-07,244,5495
2018-09-08,143,5003
2018-09-09,120,4952
2018-09-10,92,5821
2018-09-11,118,5564
2018-09-12,130,5767
2018-09-13,73,5676
2018-09-14,58,5647
2018-09-15,90,5109
2018-09-16,92,5020
2018-09-17,87,5960
2018-09-18,104,5720
2018-09-19,69,5742
2018-09-20,74,5724
2018-09-21,84,5604
2018-09-22,70,4834
2018-09-23,101,4773
2018-09-24,83,4931
2018-09-25,98,6018
2018-09-26,112,5789
2018-09-27,96,5873
2018-09-28,81,5673
2018-09-29,103,5546
2018-09-30,87,5415
2018-10-01,72,4795
2018-10-02,67,4655
2018-10-03,57,4587
2018-10-04,72,4786
2018-10-05,62,4900
2018-10-06,92,5011
2018-10-07,80,5186
2018-10-08,77,6170
2018-10-09,83,6009
2018-10-10,72,6016
2018-10-11,80,5942
2018-10-12,66,5964
2018-10-13,66,5272
2018-10-14,67,5306
2018-10-15,71,6347
2018-10-16,62,6081
2018-10-17,68,6113
2018-10-18,64,6179
2018-10-19,66,6029
2018-10-20,62,5421
2018-10-21,69,5315
2018-10-22,67,6342
2018-10-23,73,6010
2018-10-24,63,6242
2018-10-25,72,6103
2018-10-26,68,5976
2018-10-27,73,5345
2018-10-28,57,5402
2018-10-29,59,6210
2018-10-30,71,6158
2018-10-31,62,6141
2018-11-01,65,6001
2018-11-02,59,6008
2018-11-03,63,5455
2018-11-04,68,5414
2018-11-05,58,6406
2018-11-06,71,6185
2018-11-07,60,6227
2018-11-08,70,6131
2018-11-09,60,6067
2018-11-10,59,5623
2018-11-11,63,5356
2018-11-12,63,6375
2018-11-13,71,6143
2018-11-14,66,6233
2018-11-15,50,6186
2018-11-16,68,6246
2018-11-17,91,5546
2018-11-18,73,5609
2018-11-19,77,6869
2018-11-20,57,6647
2018-11-21,82,6608
2018-11-22,57,6688
2018-11-23,75,6509
2018-11-24,69,5922
2018-11-25,86,5775
2018-11-26,80,6973
2018-11-27,71,6712
2018-11-28,71,6759
2018-11-29,68,6747
2018-11-30,75,6650
2018-12-01,84,5868
2018-12-02,69,5836
2018-12-03,73,7088
2018-12-04,80,6761
2018-12-05,87,6767
2018-12-06,73,6680
2018-12-07,81,6535
2018-12-08,70,5916
2018-12-09,74,5787
2018-12-10,78,7017
2018-12-11,103,6838
2018-12-12,91,6698
2018-12-13,81,6753
2018-12-14,75,6671
2018-12-15,74,5930
2018-12-16,70,5846
2018-12-17,77,7007
2018-12-18,66,6903
2018-12-19,64,6872
2018-12-20,67,6724
2018-12-21,70,6589
2018-12-22,66,5740
2018-12-23,78,5718
2018-12-24,86,6879
2018-12-25,67,6659
2018-12-26,99,6712
2018-12-27,86,6755
2018-12-28,91,6685
2018-12-29,79,6425
2018-12-30,66,5544
2018-12-31,57,5421
2019-01-01,47,5630
2019-01-02,67,7047
2019-01-03,82,6739
2019-01-04,66,6784
2019-01-05,74,6087
2019-01-06,61,5933
2019-01-07,66,7000
2019-01-08,71,6710
2019-01-09,76,6782
2019-01-10,96,6707
2019-01-11,56,6699
2019-01-12,72,5991
2019-01-13,64,5858
2019-01-14,84,7049
2019-01-15,62,6780
2019-01-16,77,6802
2019-01-17,66,6815
2019-01-18,68,6742
2019-01-19,66,6076
2019-01-20,54,5987
2019-01-21,77,7207
2019-01-22,65,6946
2019-01-23,80,6909
2019-01-24,70,6970
2019-01-25,88,6921
2019-01-26,80,6197
2019-01-27,83,6151
2019-01-28,84,7133
2019-01-29,60,6885
2019-01-30,75,6761
2019-01-31,79,6569
2019-02-01,67,6265
2019-02-02,52,5672
2019-02-03,55,5433
2019-02-04,44,5018
2019-02-05,54,4990
2019-02-06,52,4953
2019-02-07,55,5047
2019-02-08,60,5176
2019-02-09,76,5384
2019-02-10,65,5664
2019-02-11,78,6595
2019-02-12,80,6974
2019-02-13,74,7058
2019-02-14,62,7080
2019-02-15,66,7384
2019-02-16,77,6497
2019-02-17,75,6371
2019-02-18,82,7826
2019-02-19,94,7309
2019-02-20,82,7329
2019-02-21,82,7333
2019-02-22,74,7408
2019-02-23,81,6520
2019-02-24,54,6536
2019-02-25,65,7612
2019-02-26,77,7461
2019-02-27,78,7345
2019-02-28,83,7402
2019-03-01,68,7462
2019-03-02,69,6683
2019-03-03,71,6559
2019-03-04,86,7765
2019-03-05,73,7664
2019-03-06,73,7593
2019-03-07,73,7634
2019-03-08,88,7603
2019-03-09,63,6788
2019-03-10,82,6731
2019-03-11,70,7930
2019-03-12,77,7704
2019-03-13,71,7742
2019-03-14,69,7748
2019-03-15,70,7782
2019-03-16,73,6929
2019-03-17,57,6823
2019-03-18,56,8135
2019-03-19,70,7887
2019-03-20,79,7937
2019-03-21,65,8013
2019-03-22,61,7810
2019-03-23,57,6919
2019-03-24,73,6854
2019-03-25,52,8048
2019-03-26,57,7898
2019-03-27,48,7803
2019-03-28,37,7752
2019-03-29,54,7843
2019-03-30,38,6906
2019-03-31,40,6822
2019-04-01,40,8024
2019-04-02,41,7894
2019-04-03,46,7707
2019-04-04,45,7639
2019-04-05,48,6497
2019-04-06,55,6438
2019-04-07,36,6868
2019-04-08,56,8217
2019-04-09,58,7945
2019-04-10,52,7903
2019-04-11,77,7738
2019-04-12,66,7883
2019-04-13,59,7114
2019-04-14,75,7031
2019-04-15,78,8221
2019-04-16,62,7963
2019-04-17,60,7960
2019-04-18,56,7882
2019-04-19,84,7787
2019-04-20,67,7029
2019-04-21,57,6985
2019-04-22,63,8244
2019-04-23,66,7968
2019-04-24,67,7801
2019-04-25,74,7795
2019-04-26,76,7934
2019-04-27,65,7091
2019-04-28,70,7863
2019-04-29,56,7837
2019-04-30,63,7725
2019-05-01,49,6399
2019-05-02,66,6648
2019-05-03,62,6719
2019-05-04,74,7124
2019-05-05,76,8302
2019-05-06,66,8203
2019-05-07,70,8234
2019-05-08,83,8054
2019-05-09,64,8042
2019-05-10,84,8007
2019-05-11,68,7294
2019-05-12,67,7173
2019-05-13,61,8260
2019-05-14,78,8036
2019-05-15,84,7887
2019-05-16,57,8021
2019-05-17,54,7905
2019-05-18,68,7047
2019-05-19,67,7019
2019-05-20,64,8384
2019-05-21,58,7966
2019-05-22,74,7984
2019-05-23,65,7938
2019-05-24,75,7893
2019-05-25,67,7164
2019-05-26,55,7061
2019-05-27,65,8292
2019-05-28,64,7936
2019-05-29,67,8058
2019-05-30,119,7857
2019-05-31,83,8041
2019-06-01,81,7053
2019-06-02,83,6800
2019-06-03,72,8239
2019-06-04,62,7965
2019-06-05,87,7854
2019-06-06,85,7729
2019-06-07,70,6368
2019-06-08,66,6488
2019-06-09,75,6959
2019-06-10,81,8314
2019-06-11,76,7991
2019-06-12,85,7939
2019-06-13,96,7813
2019-06-14,80,7904
2019-06-15,83,7116
2019-06-16,83,6792
2019-06-17,78,8302
2019-06-18,234,7862
2019-06-19,152,8098
2019-06-20,113,7917
2019-06-21,125,8016
2019-06-22,104,6968
2019-06-23,105,6981
2019-06-24,86,8468
2019-06-25,93,8109
2019-06-26,86,8061
2019-06-27,97,7999
2019-06-28,93,8006
2019-06-29,84,7061
2019-06-30,100,7023
2019-07-01,109,8462
2019-07-02,88,8070
2019-07-03,85,8147
2019-07-04,80,8042
2019-07-05,77,8042
2019-07-06,79,7121
2019-07-07,60,7052
2019-07-08,89,8442
2019-07-09,72,8291
2019-07-10,78,8277
2019-07-11,70,8121
2019-07-12,59,7917
2019-07-13,84,7145
2019-07-14,61,7011
2019-07-15,71,8506
2019-07-16,66,8237
2019-07-17,74,8120
2019-07-18,66,8122
2019-07-19,76,7861
2019-07-20,74,7123
2019-07-21,75,7005
2019-07-22,70,8436
2019-07-23,68,8078
2019-07-24,70,8082
2019-07-25,81,8012
2019-07-26,74,7822
2019-07-27,86,7056
2019-07-28,65,6908
2019-07-29,74,8355
2019-07-30,79,8116
2019-07-31,69,8167
2019-08-01,71,8154
2019-08-02,59,8103
2019-08-03,73,7165
2019-08-04,87,6934
2019-08-05,69,8484
2019-08-06,69,8173
2019-08-07,67,8237
2019-08-08,100,8360
2019-08-09,75,8129
2019-08-10,72,7277
2019-08-11,59,7226
2019-08-12,75,8477
2019-08-13,73,8165
2019-08-14,73,8172
2019-08-15,68,8161
2019-08-16,77,7958
2019-08-17,67,7216
2019-08-18,78,7087
2019-08-19,67,8500
2019-08-20,73,8181
2019-08-21,66,8214
2019-08-22,53,8152
2019-08-23,65,7984
2019-08-24,58,7167
2019-08-25,60,7070
2019-08-26,60,8463
2019-08-27,64,8274
2019-08-28,76,8273
2019-08-29,65,8222
2019-08-30,65,8219
2019-08-31,83,7180
2019-09-01,65,7313
2019-09-02,79,8592
2019-09-03,62,8356
2019-09-04,58,8333
2019-09-05,73,8377
2019-09-06,82,8368
2019-09-07,78,7394
2019-09-08,73,7433
2019-09-09,74,8541
2019-09-10,65,8338
2019-09-11,69,8221
2019-09-12,65,8183
2019-09-13,61,6667
2019-09-14,32,6905
2019-09-15,19,7286
2019-09-16,18,8633
2019-09-17,16,8352
2019-09-18,25,8233
2019-09-19,16,8185
2019-09-20,15,8135
2019-09-21,17,7346
2019-09-22,16,7148
2019-09-23,20,8434
2019-09-24,16,8160
2019-09-25,10,8030
2019-09-26,26,7897
2019-09-27,15,8049
2019-09-28,16,6966
2019-09-29,15,7771
2019-09-30,9,7471
2019-10-01,18,6475
2019-10-02,8,6252
2019-10-03,15,6316
2019-10-04,19,6414
2019-10-05,26,6469
2019-10-06,21,6630
2019-10-07,10,7229
2019-10-08,15,8442
2019-10-09,18,8093
2019-10-10,17,8174
2019-10-11,18,8034
2019-10-12,18,7910
2019-10-13,19,7010
2019-10-14,21,8419
2019-10-15,15,8070
2019-10-16,20,8016
2019-10-17,22,7957
2019-10-18,17,7950
2019-10-19,14,7059
2019-10-20,18,6984
2019-10-21,17,8288
2019-10-22,16,7972
2019-10-23,26,7986
2019-10-24,20,7917
2019-10-25,11,7913
2019-10-26,22,6939
2019-10-27,14,6833
2019-10-28,11,8178
2019-10-29,12,7805
2019-10-30,18,7854
2019-10-31,12,7669
2019-11-01,15,7685
2019-11-02,15,6845
2019-11-03,24,6598
2019-11-04,12,8109
2019-11-05,14,7750
2019-11-06,9,7743
2019-11-07,21,7744
2019-11-08,16,7638
2019-11-09,26,6880
2019-11-10,10,7094
2019-11-11,16,7866
2019-11-12,19,7701
2019-11-13,17,7583
2019-11-14,15,7586
2019-11-15,17,7647
2019-11-16,21,6551
2019-11-17,14,6716
2019-11-18,18,7950
2019-11-19,21,7478
2019-11-20,16,7559
2019-11-21,23,7581
2019-11-22,15,7392
2019-11-23,26,6583
2019-11-24,9,6069
2019-11-25,16,7713
2019-11-26,19,7487
2019-11-27,17,7559
2019-11-28,19,7294
2019-11-29,18,7378
2019-11-30,16,6711
2019-12-01,14,6563
2019-12-02,24,7656
2019-12-03,10,7410
2019-12-04,13,7330
2019-12-05,13,7301
2019-12-06,17,7373
2019-12-07,11,6479
2019-12-08,18,6425
2019-12-09,14,7721
2019-12-10,13,7314
2019-12-11,23,7442
2019-12-12,21,7307
2019-12-13,17,7349
2019-12-14,19,6546
2019-12-15,23,6206
2019-12-16,16,7489
2019-12-17,16,7174
2019-12-18,11,7064
2019-12-19,19,7148
2019-12-20,15,7140
2019-12-21,15,6512
2019-12-22,14,6292
2019-12-23,20,7631
2019-12-24,15,7150
2019-12-25,17,7162
2019-12-26,19,7189
2019-12-27,21,7072
2019-12-28,18,6333
2019-12-29,11,6280
2019-12-30,24,7474
2019-12-31,18,7012
2020-01-01,9,6116
2020-01-02,13,7446
2020-01-03,11,7060
2020-01-04,20,6499
2020-01-05,20,6242
2020-01-06,10,7469
2020-01-07,17,7161
2020-01-08,15,7165
2020-01-09,21,7013
2020-01-10,19,7017
2020-01-11,14,6227
2020-01-12,17,5961
2020-01-13,15,7253
2020-01-14,13,6928
2020-01-15,14,6909
2020-01-16,22,6826
2020-01-17,16,6601
2020-01-18,20,5774
2020-01-19,11,6324
2020-01-20,21,6262
2020-01-21,10,5848
2020-01-22,9,5567
2020-01-23,9,5174
2020-01-24,4,4882
2020-01-25,8,4788
2020-01-26,17,5194
2020-01-27,11,5317
2020-01-28,11,5523
2020-01-29,16,5641
2020-01-30,17,5745
2020-01-31,11,5951
2020-02-01,17,5890
2020-02-02,26,6047
2020-02-03,23,6524
2020-02-04,31,6379
2020-02-05,39,6439
2020-02-06,30,6510
2020-02-07,38,6574
2020-02-08,21,2007
2020-02-09,32,2876
2020-02-10,40,7573
2020-02-11,34,6831
2020-02-12,36,6909
2020-02-13,21,6836
2020-02-14,22,6909
2020-02-15,27,6569
2020-02-16,39,6546
2020-02-17,28,7051
2020-02-18,28,6911
2020-02-19,29,7061
2020-02-20,26,7018
2020-02-21,28,7126
2020-02-22,34,6614
2020-02-23,36,6619
2020-02-24,31,7254
2020-02-25,23,7348
2020-02-26,25,7160
2020-02-27,21,7193
2020-02-28,27,7167
2020-02-29,24,6615
2020-03-01,27,6535
2020-03-02,25,7405
2020-03-03,32,7313
2020-03-04,25,7110
2020-03-05,26,7209